User: anonymous   Login
Location: Morlupo
(42.1333°N, 12.5000°E)
Time: 05:42:55
(UTC+00:00)
Language:

Cosmos 1891 Rocket - Orbit

View from above orbital plane
View from above orbital plane
View from above satellite
View from above satellite

Ground track
Ground track

The orbit data is extracted from the following two-line orbital elements,

1 18403U 87087B   20333.48798766 +.00000038 +00000-0 +24031-4 0  9997
2 18403 082.9205 233.1698 0056226 259.0311 100.4517 13.76535414663437
Epoch (UTC): 28 November 2020 11:42:42
Eccentricity: 0.0056226
inclination: 82.9205°
perigee height: 935 km
apogee height: 1017 km
right ascension of ascending node: 233.1698°
argument of perigee: 259.0311°
revolutions per day: 13.76535414
mean anomaly at epoch: 100.4517°
orbit number at epoch: 66343

The dashed part of the orbit path shows where the satellite is in the earth's shadow,  

DLR